User: anonymous   Login
Location: Utrecht
(52.0830°N, 5.1330°E)
Time: 22:50:50
(UTC+01:00)
Language:

Cosmos 1092 Rocket - Orbit

View from above orbital plane
View from above orbital plane
View from above satellite
View from above satellite

Ground track
Ground track

The orbit data is extracted from the following two-line orbital elements,

1 11327U 79030B   14331.43881810  .00000068  00000-0  53187-4 0  8887
2 11327 082.9506 268.4159 0026231 270.6065 218.3002 13.76952208790770
Epoch (UTC): 27 November 2014 10:31:53
Eccentricity: 0.0026231
inclination: 82.9506°
perigee height: 955 km
apogee height: 994 km
right ascension of ascending node: 268.4159°
argument of perigee: 270.6065°
revolutions per day: 13.76952208
mean anomaly at epoch: 218.3002°
orbit number at epoch: 79077

The dashed part of the orbit path shows where the satellite is in the earth's shadow,  

DLR